When you browse on this site, cookies collect data to enhance your experience and personalize the content and advertising you see.
Visit our Privacy Policy to learn more. By continuing to use the site, you agree to this use of cookies and data.

Hourly Weather Podvysokoe

Today, 26 September, Saturday

Time Temperature Precipitation Wind Pressure Humidity
00:00 +14°C° 0 mm 4 mps 745 mmHg 59%
01:00 +13°C° 0 mm 4 mps 745 mmHg 60%
02:00 +13°C° 0 mm 4 mps 745 mmHg 61%
03:00 +13°C° 0 mm 4 mps 745 mmHg 63%
04:00 +12°C° 0 mm 4 mps 745 mmHg 64%
05:00 +12°C° 0 mm 4 mps 745 mmHg 66%
06:00 +13°C° 0 mm 4 mps 745 mmHg 62%
07:00 +14°C° 0 mm 5 mps 745 mmHg 58%
08:00 +15°C° 0 mm 5 mps 745 mmHg 54%
09:00 +17°C° 0 mm 6 mps 745 mmHg 49%
10:00 +20°C° 0 mm 6 mps 746 mmHg 45%
11:00 +22°C° 0 mm 7 mps 746 mmHg 40%
12:00 +22°C° 0 mm 6 mps 746 mmHg 40%
13:00 +21°C° 0 mm 6 mps 745 mmHg 41%
14:00 +21°C° 0 mm 6 mps 745 mmHg 41%
15:00 +20°C° 0 mm 5 mps 745 mmHg 43%
16:00 +19°C° 0 mm 5 mps 745 mmHg 45%
17:00 +19°C° 0 mm 5 mps 745 mmHg 47%
18:00 +19°C° 0 mm 5 mps 745 mmHg 45%
19:00 +17°C° 0 mm 5 mps 745 mmHg 44%
20:00 +17°C° 0 mm 5 mps 746 mmHg 43%
21:00 +17°C° 0 mm 5 mps 746 mmHg 41%
22:00 +17°C° 0 mm 6 mps 746 mmHg 40%
23:00 +17°C° 0 mm 6 mps 746 mmHg 39%

Tomorrow, 27 September, Sunday

Time Temperature Precipitation Wind Pressure Humidity
00:00 +16°C° 0 mm 6 mps 746 mmHg 38%
01:00 +15°C° 0 mm 6 mps 746 mmHg 38%
02:00 +15°C° 0 mm 6 mps 747 mmHg 37%
03:00 +14°C° 0 mm 6 mps 747 mmHg 38%
04:00 +13°C° 0 mm 6 mps 747 mmHg 38%
05:00 +13°C° 0 mm 6 mps 747 mmHg 38%
06:00 +13°C° 0 mm 6 mps 747 mmHg 40%
07:00 +12°C° 0 mm 7 mps 747 mmHg 42%
08:00 +12°C° 0 mm 7 mps 748 mmHg 43%
09:00 +15°C° 0 mm 7 mps 748 mmHg 41%
10:00 +16°C° 0 mm 7 mps 748 mmHg 39%
11:00 +17°C° 0 mm 8 mps 748 mmHg 37%
12:00 +18°C° 0 mm 8 mps 747 mmHg 37%
13:00 +20°C° 0 mm 8 mps 747 mmHg 36%
14:00 +21°C° 0 mm 8 mps 747 mmHg 35%
15:00 +20°C° 0 mm 7 mps 747 mmHg 36%
16:00 +19°C° 0 mm 6 mps 747 mmHg 38%
17:00 +19°C° 0 mm 5 mps 747 mmHg 39%
18:00 +19°C° 0 mm 6 mps 747 mmHg 38%
19:00 +17°C° 0 mm 6 mps 747 mmHg 37%
20:00 +17°C° 0 mm 6 mps 747 mmHg 36%
21:00 +17°C° 0 mm 6 mps 748 mmHg 36%
22:00 +17°C° 0 mm 6 mps 748 mmHg 36%
23:00 +16°C° 0 mm 5 mps 748 mmHg 37%

Day after tomorrow, 28 September, Monday

Time Temperature Precipitation Wind Pressure Humidity
00:00 +15°C° 0.4 mm 5 mps 748 mmHg 42%
01:00 +14°C° 0.4 mm 5 mps 748 mmHg 48%
02:00 +13°C° 0.4 mm 5 mps 747 mmHg 53%
03:00 +13°C° 0.9 mm 6 mps 748 mmHg 58%
04:00 +11°C° 0.9 mm 6 mps 748 mmHg 63%
05:00 +11°C° 0.9 mm 6 mps 748 mmHg 69%
06:00 +13°C° 0 mm 6 mps 748 mmHg 68%
07:00 +13°C° 0 mm 6 mps 748 mmHg 68%
08:00 +14°C° 0 mm 6 mps 748 mmHg 67%
09:00 +15°C° 0 mm 6 mps 749 mmHg 64%
10:00 +16°C° 0 mm 6 mps 749 mmHg 61%
11:00 +17°C° 0 mm 6 mps 749 mmHg 58%
12:00 +19°C° 0 mm 6 mps 749 mmHg 56%
13:00 +19°C° 0 mm 5 mps 749 mmHg 55%
14:00 +19°C° 0 mm 5 mps 750 mmHg 53%
15:00 +19°C° 0 mm 4 mps 750 mmHg 54%
16:00 +18°C° 0 mm 4 mps 750 mmHg 55%
17:00 +18°C° 0 mm 3 mps 750 mmHg 57%
18:00 +17°C° 0 mm 3 mps 750 mmHg 55%
19:00 +17°C° 0 mm 4 mps 750 mmHg 54%
20:00 +17°C° 0 mm 4 mps 750 mmHg 53%
21:00 +15°C° 0 mm 4 mps 750 mmHg 50%
22:00 +15°C° 0 mm 4 mps 750 mmHg 48%
23:00 +15°C° 0 mm 4 mps 750 mmHg 45%

29 September, Tuesday

Time Temperature Precipitation Wind Pressure Humidity
00:00 +15°C° 0 mm 4 mps 750 mmHg 44%
01:00 +15°C° 0 mm 5 mps 750 mmHg 42%
02:00 +15°C° 0 mm 5 mps 750 mmHg 40%
03:00 +14°C° 0 mm 5 mps 750 mmHg 41%
04:00 +14°C° 0 mm 5 mps 750 mmHg 41%
05:00 +14°C° 0 mm 5 mps 749 mmHg 41%
06:00 +14°C° 0 mm 6 mps 749 mmHg 43%
07:00 +14°C° 0 mm 6 mps 749 mmHg 44%
08:00 +14°C° 0 mm 7 mps 749 mmHg 45%
09:00 +15°C° 0 mm 7 mps 749 mmHg 43%
10:00 +16°C° 0 mm 7 mps 749 mmHg 40%
11:00 +16°C° 0 mm 7 mps 749 mmHg 37%
12:00 +17°C° 0 mm 7 mps 749 mmHg 38%
13:00 +17°C° 0 mm 7 mps 748 mmHg 38%
14:00 +18°C° 0 mm 7 mps 748 mmHg 38%
15:00 +17°C° 0 mm 6 mps 748 mmHg 40%
16:00 +16°C° 0 mm 6 mps 748 mmHg 41%
17:00 +15°C° 0 mm 5 mps 748 mmHg 43%
18:00 +15°C° 0 mm 5 mps 748 mmHg 42%
19:00 +15°C° 0 mm 5 mps 747 mmHg 41%
20:00 +14°C° 0 mm 5 mps 747 mmHg 40%
21:00 +14°C° 0 mm 5 mps 747 mmHg 37%
22:00 +15°C° 0 mm 5 mps 747 mmHg 35%
23:00 +15°C° 0 mm 6 mps 747 mmHg 32%

30 September, Wednesday

Time Temperature Precipitation Wind Pressure Humidity
00:00 +14°C° 0 mm 6 mps 747 mmHg 32%
01:00 +14°C° 0 mm 6 mps 746 mmHg 31%
02:00 +13°C° 0 mm 6 mps 746 mmHg 31%
03:00 +13°C° 0 mm 6 mps 746 mmHg 32%
04:00 +13°C° 0 mm 6 mps 746 mmHg 32%
05:00 +13°C° 0 mm 6 mps 746 mmHg 33%
06:00 +12°C° 0 mm 7 mps 746 mmHg 34%
07:00 +12°C° 0 mm 7 mps 746 mmHg 36%
08:00 +13°C° 0 mm 8 mps 746 mmHg 37%
09:00 +15°C° 0 mm 8 mps 746 mmHg 35%
10:00 +16°C° 0 mm 8 mps 746 mmHg 33%
11:00 +17°C° 0 mm 8 mps 746 mmHg 31%
12:00 +17°C° 0 mm 8 mps 745 mmHg 30%
13:00 +17°C° 0 mm 8 mps 745 mmHg 29%
14:00 +18°C° 0 mm 8 mps 745 mmHg 28%
15:00 +17°C° 0 mm 8 mps 745 mmHg 30%
16:00 +17°C° 0 mm 7 mps 745 mmHg 31%
17:00 +16°C° 0 mm 6 mps 744 mmHg 32%
18:00 +16°C° 0 mm 6 mps 745 mmHg 32%
19:00 +15°C° 0 mm 6 mps 745 mmHg 32%
20:00 +15°C° 0 mm 6 mps 745 mmHg 31%
21:00 +15°C° 0 mm 6 mps 745 mmHg 32%
22:00 +15°C° 0 mm 7 mps 745 mmHg 33%
23:00 +15°C° 0 mm 7 mps 745 mmHg 34%

1 October, Thursday

Time Temperature Precipitation Wind Pressure Humidity
00:00 +15°C° 0 mm 7 mps 745 mmHg 36%
01:00 +15°C° 0 mm 7 mps 745 mmHg 38%
02:00 +14°C° 0 mm 7 mps 745 mmHg 39%
03:00 +14°C° 0 mm 7 mps 745 mmHg 40%
04:00 +14°C° 0 mm 7 mps 745 mmHg 40%
05:00 +13°C° 0 mm 8 mps 745 mmHg 40%
06:00 +13°C° 0 mm 8 mps 745 mmHg 41%
07:00 +13°C° 0 mm 8 mps 746 mmHg 42%
08:00 +13°C° 0 mm 9 mps 746 mmHg 42%
09:00 +15°C° 0 mm 9 mps 746 mmHg 40%
10:00 +17°C° 0 mm 9 mps 746 mmHg 37%
11:00 +18°C° 0 mm 9 mps 746 mmHg 35%
12:00 +18°C° 0 mm 9 mps 746 mmHg 33%
13:00 +19°C° 0 mm 9 mps 746 mmHg 32%
14:00 +20°C° 0 mm 8 mps 747 mmHg 31%
15:00 +18°C° 0 mm 7 mps 747 mmHg 32%
16:00 +19°C° 0 mm 6 mps 747 mmHg 34%
17:00 +17°C° 0 mm 5 mps 747 mmHg 36%
18:00 +17°C° 0 mm 6 mps 747 mmHg 35%
19:00 +17°C° 0 mm 6 mps 747 mmHg 35%
20:00 +16°C° 0 mm 6 mps 747 mmHg 34%
21:00 +16°C° 0 mm 6 mps 747 mmHg 36%
22:00 +15°C° 0 mm 6 mps 747 mmHg 38%
23:00 +15°C° 0 mm 6 mps 748 mmHg 40%
Show more